Lexington Weather

Lexington, Massachusetts, USA

75°F
9/22/2021 1:26pm 
  • Lexington Conditions: Overcast
  • Temperature: 75.0°F / 23.9°CColder 0.6°F than last hour.
  • Dew Point: 68.4°FDecreased 1.2°Fsince last hour.
  • Relative Humidity: 80%Decreased 2.0% since last hour.
  • Wind: Wind from W W 7 mph, 10-min avg: 3 mph, gust: 11 mph
  • Barometer: 30.10 inFalling 0.02  inHg/hr Falling Slowly
  • Visibility: 10 miles
  • Rain Today: 0.00 in
  •   

Regional Weather Roundup
for Boston / Norton, MA

        
000
ASUS41 KBOX 200204
RWRBOX

REGIONAL WEATHER ROUNDUP
NATIONAL WEATHER SERVICE BOSTON/NORTON MA
1000 PM EDT SUN SEP 19 2021

NOTE:  "FAIR" INDICATES FEW OR NO CLOUDS BELOW 12,000 FEET WITH NO 
SIGNIFICANT WEATHER AND/OR OBSTRUCTIONS TO VISIBILITY.

MAZALL-200300-
EASTERN MASSACHUSETTS
  
CITY           SKY/WX    TMP DP  RH WIND       PRES   REMARKS
BOSTON         CLEAR     63  55  75 S5        30.23R                  
BEVERLY        CLEAR     57  55  93 CALM      30.22R                  
LAWRENCE       CLEAR     58  54  86 CALM      30.25R                  
BEDFORD        CLEAR     57  56  96 CALM      30.22R                  
BLUE HILL      NOT AVBL                                               
NORWOOD        CLEAR     55  52  89 CALM      30.23R                  
MARSHFIELD     CLEAR     55  54  94 CALM      30.22S                  
PLYMOUTH       CLEAR     54  52  93 CALM      30.23R                  
TAUNTON        CLEAR     52  50  93 CALM      30.23R                  
NEW BEDFORD    CLEAR     53  52  96 CALM      30.22R                  
$$

MAZALL-200300-
CAPE COD AND THE ISLANDS
  
CITY           SKY/WX    TMP DP  RH WIND       PRES   REMARKS
FALMOUTH       CLEAR     54  52  94 CALM      30.23R                  
HYANNIS        CLEAR     52  50  93 CALM      30.22R                  
CHATHAM        CLEAR     57  53  86 CALM      30.23R                  
PROVINCETOWN   CLEAR     55  52  89 CALM      30.23R                  
NANTUCKET      CLEAR     57  51  80 NE7       30.22R                  
MARTHAS VNYRD  CLEAR     55  50  83 N5        30.22R                  
$$
 
MAZALL-200300-
CENTRAL AND WESTERN MASSACHUSETTS
  
CITY           SKY/WX    TMP DP  RH WIND       PRES   REMARKS
WORCESTER      CLEAR     63  51  65 N5        30.24R                  
FITCHBURG      CLEAR     57  54  89 NW3       30.24R                  
ORANGE         CLEAR     55  53  93 CALM      30.26R                  
SPRINGFIELD    CLEAR     55  54  96 CALM      30.22R                  
WESTFIELD      CLEAR     56  56 100 CALM      30.23R                  
NORTH ADAMS    CLEAR     53  50  89 CALM      30.26R                  
PITTSFIELD     CLEAR     50  48  93 SE5       30.25R                  
$$
 
RIZALL-200300-
RHODE ISLAND
  
CITY           SKY/WX    TMP DP  RH WIND       PRES   REMARKS
PROVIDENCE     CLEAR     61  55  81 CALM      30.23R                  
NEWPORT        CLEAR     60  50  69 E5        30.22R                  
SMITHFIELD     CLEAR     56  53  90 SE5       30.24R                  
WESTERLY       CLEAR     57  57 100 CALM      30.22R                  
$$
 
CTZALL-200300-
CONNECTICUT
  
CITY           SKY/WX    TMP DP  RH WIND       PRES   REMARKS
BRADLEY INTL   CLEAR     59  53  80 CALM      30.23R                  
HARTFORD       CLEAR     61  57  87 CALM      30.22R                  
BRIDGEPORT     CLEAR     65  54  67 N3        30.21R                  
DANBURY        CLEAR     59  55  87 SW5       30.25R                  
GROTON         CLEAR     58  56  93 N3        30.21S                  
NEW HAVEN      CLEAR     60  54  80 CALM      30.22R                  
CHESTER        FAIR      57  55  94 CALM      30.23R                  
MERIDEN        CLEAR     56  52  86 CALM      30.23R                  
WILLIMANTIC    CLEAR     57  56  96 CALM      30.23R                  
OXFORD         CLEAR     58  54  86 N7        30.24R                  
$$

MEZ002-015-021-024-NHZ003-005-008-011-012-014-VTZ005-008-200300-
NORTHERN NEW ENGLAND
  
CITY           SKY/WX    TMP DP  RH WIND       PRES   REMARKS
PORTLAND ME    CLEAR     57  52  83 CALM      30.23R                  
BANGOR ME      CLEAR     50  48  93 N3        30.23R                  
CONCORD NH     CLEAR     52  51  97 CALM      30.23R                  
MANCHESTER NH  CLEAR     60  52  74 E3        30.21R                  
NASHUA NH      CLEAR     58  58 100 CALM      30.24R                  
PORTSMOUTH NH  CLEAR     57  53  86 CALM      30.24R                  
JAFFREY NH     CLEAR     53  53 100 CALM      30.26R                  
KEENE NH       CLEAR     54  53  97 CALM      30.25R                  
BURLINGTON VT  CLEAR     54  51  90 CALM      30.25S                  
MT. WASHINGTON CLEAR     46   1  15 N9          N/A                   
$$

NYZ052-076-200300-
EASTERN NEW YORK
  
CITY           SKY/WX    TMP DP  RH WIND       PRES   REMARKS
ALBANY         PTCLDY    54  53  97 CALM      30.25R                  
NEW YORK CITY  CLEAR     72  50  45 E6        30.21R                  
$$
 
ANZALL-200300-
MARINE OBSERVATIONS
  
STATION/POSITION TIME  TEMP    WIND        PRES    VSBY  WAVE
                       AIR SEA DIR/SP/G                  HT/PER
                 (UTC) (F)     (DEG/KT/KT) (MB)    (MI)  (FT/S)
BOSTON BUOY      0140      66  120/  4/  6 1023.6R
BUZZARDS BAY     0100           70/ 12/ 13 1024.1R
NANTUCKET SOUND  0140   67 72   50/ 12/ 14 1023.2R
MASS BAY-STELLWA 0104   65     120/  4/  6 1022.5R  1 7/8  4/11
ISLE OF SHOALS   0100   64     180/  3/  3 1022.8R
S OF BLOCK IS    NOT AVBL
$$

......................KEY.........................
  SKY/WX - SKY CONDITION/PRESENT WEATHER
  TMP    - TEMPERATURE IN FAHRENHEIT
  DWPT   - DEWPOINT IN FAHRENHEIT
  RH     - RELATIVE HUMIDITY IN PERCENT
  WIND   - DIRECTION AND SPEED IN MPH
  PRES   - MEAN SEA LEVEL PRESSURE IN INCHES OF HG
  WCI    - WIND CHILL INDEX
  VSB    - VISIBILITY IN MILES
  HX     - HEAT INDEX
  TC     - TEMPERATURE IN CELSIUS
  VRB    - VARIABLE WIND DIRECTION
  N/A    - NOT AVAILABLE
  
      

Other recent Regional Weather Roundups

Wed Sep 22, 1:04pm

Wed Sep 22, 12:05pm

Wed Sep 22, 11:04am

Wed Sep 22, 10:04am

Wed Sep 22, 9:04am

Wed Sep 22, 8:04am

Wed Sep 22, 7:04am

Wed Sep 22, 6:04am

Wed Sep 22, 5:04am

Wed Sep 22, 4:04am

Wed Sep 22, 3:04am

Wed Sep 22, 2:04am

Wed Sep 22, 1:04am

Wed Sep 22, 12:04am

Tue Sep 21, 11:04pm

Tue Sep 21, 10:04pm

Tue Sep 21, 9:04pm

Tue Sep 21, 8:04pm

Tue Sep 21, 7:04pm

Tue Sep 21, 6:04pm

Tue Sep 21, 5:04pm

Tue Sep 21, 4:04pm

Tue Sep 21, 3:04pm

Tue Sep 21, 2:04pm

Tue Sep 21, 1:04pm

Tue Sep 21, 12:04pm

Tue Sep 21, 11:04am

Tue Sep 21, 10:04am

Tue Sep 21, 9:04am

Tue Sep 21, 8:04am

Tue Sep 21, 7:04am

Tue Sep 21, 6:04am

Tue Sep 21, 5:04am

Tue Sep 21, 4:04am

Tue Sep 21, 3:04am

Tue Sep 21, 2:04am

Tue Sep 21, 1:04am

Tue Sep 21, 12:04am

Mon Sep 20, 11:04pm

Mon Sep 20, 10:04pm

Mon Sep 20, 9:04pm

Mon Sep 20, 8:04pm

Mon Sep 20, 7:04pm

Mon Sep 20, 6:04pm

Mon Sep 20, 5:04pm

Mon Sep 20, 4:04pm

Mon Sep 20, 3:04pm

Mon Sep 20, 2:04pm

Mon Sep 20, 1:04pm

Mon Sep 20, 12:04pm

Mon Sep 20, 11:04am

Mon Sep 20, 10:04am

Mon Sep 20, 9:04am

Mon Sep 20, 7:04am

Mon Sep 20, 6:04am

Mon Sep 20, 5:04am

Mon Sep 20, 4:04am

Mon Sep 20, 3:04am

Mon Sep 20, 2:04am

Mon Sep 20, 1:04am

Mon Sep 20, 12:04am

Sun Sep 19, 11:04pm

Sun Sep 19, 9:04pm

Sun Sep 19, 8:04pm

Sun Sep 19, 7:04pm

Sun Sep 19, 6:04pm

Sun Sep 19, 5:04pm

Sun Sep 19, 4:04pm

Sun Sep 19, 3:04pm

Sun Sep 19, 2:05pm

Sun Sep 19, 1:04pm

Sun Sep 19, 12:04pm

Sun Sep 19, 11:04am

Sun Sep 19, 10:05am

Sun Sep 19, 9:04am

Sun Sep 19, 8:04am

Sun Sep 19, 7:04am

Sun Sep 19, 6:04am

Sun Sep 19, 5:04am

Sun Sep 19, 4:04am

Sun Sep 19, 3:04am

Sun Sep 19, 2:04am

Sun Sep 19, 1:04am

Sun Sep 19, 12:04am

Sat Sep 18, 11:05pm

Sat Sep 18, 10:04pm

Sat Sep 18, 9:04pm

Sat Sep 18, 8:04pm

Sat Sep 18, 7:04pm

Sat Sep 18, 6:04pm

Sat Sep 18, 5:04pm

Sat Sep 18, 4:04pm

Sat Sep 18, 3:04pm

Sat Sep 18, 2:04pm

Sat Sep 18, 1:04pm

Sat Sep 18, 12:04pm

Sat Sep 18, 11:04am

Sat Sep 18, 10:04am

Sat Sep 18, 9:04am

Sat Sep 18, 8:04am

Sat Sep 18, 7:04am

Sat Sep 18, 6:04am

Sat Sep 18, 5:04am

Sat Sep 18, 4:04am

Sat Sep 18, 3:04am

Sat Sep 18, 2:04am

Sat Sep 18, 1:04am

Sat Sep 18, 12:04am

Fri Sep 17, 11:04pm

Fri Sep 17, 10:04pm

Fri Sep 17, 9:04pm

Fri Sep 17, 8:04pm

Fri Sep 17, 7:04pm

Fri Sep 17, 6:04pm

Fri Sep 17, 5:04pm

Fri Sep 17, 4:04pm

Fri Sep 17, 3:04pm

Fri Sep 17, 2:04pm

Fri Sep 17, 1:04pm

Fri Sep 17, 12:05pm

Fri Sep 17, 11:04am

Fri Sep 17, 10:04am

Fri Sep 17, 9:04am

Fri Sep 17, 8:04am

Fri Sep 17, 7:04am

Fri Sep 17, 6:04am

Fri Sep 17, 5:04am

Fri Sep 17, 4:04am

Fri Sep 17, 3:04am

Fri Sep 17, 2:04am

Fri Sep 17, 1:04am

Fri Sep 17, 12:04am

Thu Sep 16, 11:04pm

Thu Sep 16, 10:04pm

Thu Sep 16, 9:04pm

Thu Sep 16, 8:04pm

Thu Sep 16, 7:04pm

Thu Sep 16, 6:04pm

Thu Sep 16, 5:04pm

Thu Sep 16, 4:04pm

Thu Sep 16, 3:04pm

Thu Sep 16, 2:04pm

Thu Sep 16, 1:05pm

Thu Sep 16, 12:04pm

Thu Sep 16, 11:05am

Thu Sep 16, 10:05am

Thu Sep 16, 9:04am

Thu Sep 16, 8:04am

Thu Sep 16, 7:04am

Thu Sep 16, 6:04am

Thu Sep 16, 5:04am

Thu Sep 16, 4:04am

Thu Sep 16, 3:04am

Thu Sep 16, 2:04am

Thu Sep 16, 1:04am

Thu Sep 16, 12:04am

Wed Sep 15, 11:04pm

Wed Sep 15, 10:04pm

Wed Sep 15, 9:04pm

Wed Sep 15, 8:04pm

Wed Sep 15, 7:04pm

Wed Sep 15, 6:04pm

Wed Sep 15, 5:05pm

Wed Sep 15, 4:04pm

Wed Sep 15, 3:04pm

Wed Sep 15, 2:04pm

Meta data:

ID: 6bebfcaa-e5f8-487d-a40d-269b6fd59571
Link: https://api.weather.gov/products/6bebfcaa-e5f8-487d-a40d-269b6fd59571